| time (UTC) | temp F | wind direction | speed MPH | gust MPH | rain 1hr in | rain 24hr in | rain mn in | humidity % | barometer mb |
| 20260503131017 | 52 | 338 | 9.0 | 14.0 | 0.00 | 0.08 | 0.00 | 69 | 1017.0 |
| 20260503081016 | 46 | 0.0 | 1.0 | 0.00 | 0.16 | 0.00 | 89 | 1012.8 | |
| 20260503072016 | 46 | 0.0 | 1.0 | 0.00 | 0.16 | 0.00 | 90 | 1012.2 | |
| 20260503071036 | 46 | 0.0 | 1.0 | 0.00 | 0.16 | 0.00 | 90 | 1012.1 | |
| 20260503055015 | 48 | 0.0 | 0.0 | 0.00 | 0.16 | 0.00 | 88 | 1011.7 | |
| 20260503054036 | 49 | 0.0 | 0.0 | 0.00 | 0.16 | 0.00 | 87 | 1011.7 | |
| 20260503053016 | 49 | 0.0 | 0.0 | 0.00 | 0.16 | 0.00 | 87 | 1011.6 | |
| 20260503052035 | 49 | 0.0 | 0.0 | 0.00 | 0.16 | 0.00 | 87 | 1011.6 | |
| 20260503051015 | 49 | 0.0 | 0.0 | 0.00 | 0.16 | 0.00 | 87 | 1011.7 | |
| 20260503050015 | 50 | 0.0 | 0.0 | 0.00 | 0.16 | 0.00 | 87 | 1011.8 | |
| 20260503045016 | 50 | 0.0 | 0.0 | 0.00 | 0.16 | 0.00 | 86 | 1011.6 | |
| 20260503044015 | 50 | 0.0 | 1.0 | 0.00 | 0.16 | 0.00 | 86 | 1011.8 | |
| 20260503043017 | 50 | 0.0 | 0.0 | 0.00 | 0.16 | 0.00 | 87 | 1011.7 | |
| 20260503042017 | 50 | 0.0 | 0.0 | 0.00 | 0.16 | 0.00 | 86 | 1011.7 | |
| 20260503041038 | 51 | 0.0 | 0.0 | 0.00 | 0.16 | 0.00 | 86 | 1011.7 | |
| 20260503040016 | 51 | 0.0 | 0.0 | 0.00 | 0.16 | 0.16 | 86 | 1011.7 | |
| 20260503035017 | 51 | 0.0 | 2.0 | 0.00 | 0.16 | 0.16 | 87 | 1011.8 | |
| 20260503034017 | 50 | 0.0 | 2.0 | 0.00 | 0.16 | 0.16 | 88 | 1011.6 | |
| 20260503033018 | 51 | 0.0 | 0.0 | 0.00 | 0.16 | 0.16 | 88 | 1011.6 | |
| 20260503032017 | 51 | 0.0 | 0.0 | 0.00 | 0.16 | 0.16 | 88 | 1011.6 | |
| 20260503031017 | 51 | 0.0 | 0.0 | 0.00 | 0.16 | 0.16 | 87 | 1011.5 | |
| 20260503030017 | 51 | 0.0 | 0.0 | 0.00 | 0.16 | 0.16 | 88 | 1011.6 | |
| 20260503025017 | 51 | 0.0 | 0.0 | 0.00 | 0.17 | 0.16 | 88 | 1011.6 | |
| 20260503024017 | 51 | 0.0 | 0.0 | 0.00 | 0.17 | 0.16 | 87 | 1011.7 | |
| 20260503023017 | 51 | 0.0 | 1.0 | 0.00 | 0.17 | 0.16 | 87 | 1011.5 | |
| 20260503022017 | 51 | 0.0 | 0.0 | 0.00 | 0.17 | 0.16 | 86 | 1011.7 | |
| 20260503021017 | 51 | 0.0 | 0.0 | 0.00 | 0.17 | 0.16 | 85 | 1011.6 | |
| 20260503020017 | 52 | 0.0 | 1.0 | 0.00 | 0.17 | 0.16 | 85 | 1011.6 | |
| 20260503015017 | 51 | 338 | 1.0 | 4.0 | 0.00 | 0.17 | 0.16 | 85 | 1011.7 |
| 20260503014017 | 52 | 0.0 | 1.0 | 0.00 | 0.17 | 0.16 | 88 | 1011.7 | |
| 20260503013037 | 52 | 0.0 | 1.0 | 0.00 | 0.17 | 0.16 | 89 | 1011.6 | |
| 20260503012017 | 52 | 0.0 | 1.0 | 0.00 | 0.17 | 0.16 | 89 | 1011.2 | |
| 20260503011017 | 52 | 0.0 | 1.0 | 0.00 | 0.17 | 0.16 | 89 | 1011.2 | |
| 20260503010017 | 52 | 0 | 1.0 | 2.0 | 0.00 | 0.17 | 0.16 | 89 | 1011.1 |
| 20260503005017 | 53 | 338 | 4.0 | 5.0 | 0.00 | 0.17 | 0.16 | 90 | 1010.9 |
| 20260503004017 | 53 | 338 | 1.0 | 4.0 | 0.00 | 0.17 | 0.16 | 90 | 1010.9 |
| 20260503003017 | 53 | 338 | 1.0 | 2.0 | 0.00 | 0.17 | 0.16 | 90 | 1010.8 |
| 20260503002017 | 53 | 338 | 1.0 | 2.0 | 0.00 | 0.17 | 0.16 | 89 | 1010.8 |
| 20260503001017 | 53 | 0.0 | 2.0 | 0.00 | 0.17 | 0.16 | 90 | 1010.9 | |
| 20260503000017 | 53 | 338 | 1.0 | 3.0 | 0.00 | 0.17 | 0.16 | 89 | 1010.7 |
| 20260502235017 | 53 | 0.0 | 1.0 | 0.00 | 0.17 | 0.16 | 89 | 1010.5 | |
| 20260502234017 | 53 | 0.0 | 2.0 | 0.00 | 0.17 | 0.16 | 87 | 1010.4 | |
| 20260502233037 | 54 | 338 | 1.0 | 2.0 | 0.00 | 0.17 | 0.16 | 87 | 1010.2 |
| 20260502232017 | 54 | 338 | 3.0 | 5.0 | 0.00 | 0.17 | 0.16 | 87 | 1009.9 |
| 20260502231017 | 54 | 338 | 2.0 | 6.0 | 0.00 | 0.17 | 0.16 | 87 | 1010.0 |
| 20260502230016 | 54 | 338 | 1.0 | 4.0 | 0.00 | 0.17 | 0.16 | 87 | 1010.0 |
| 20260502225037 | 54 | 338 | 3.0 | 6.0 | 0.00 | 0.17 | 0.16 | 87 | 1010.1 |
| 20260502224016 | 54 | 338 | 3.0 | 5.0 | 0.00 | 0.17 | 0.16 | 87 | 1010.1 |
| 20260502223017 | 53 | 338 | 4.0 | 6.0 | 0.00 | 0.17 | 0.16 | 86 | 1010.1 |
| 20260502222017 | 53 | 338 | 4.0 | 6.0 | 0.00 | 0.17 | 0.16 | 87 | 1010.1 |
| 20260502221016 | 53 | 0 | 4.0 | 7.0 | 0.00 | 0.17 | 0.16 | 87 | 1010.0 |
| 20260502220017 | 54 | 0 | 4.0 | 7.0 | 0.00 | 0.17 | 0.16 | 87 | 1010.2 |
| 20260502215017 | 54 | 338 | 4.0 | 9.0 | 0.00 | 0.17 | 0.16 | 87 | 1010.2 |
| 20260502214017 | 54 | 23 | 3.0 | 8.0 | 0.01 | 0.17 | 0.16 | 87 | 1010.3 |
| 20260502213036 | 54 | 0 | 4.0 | 7.0 | 0.01 | 0.17 | 0.16 | 89 | 1010.3 |
| 20260502212016 | 54 | 338 | 6.0 | 11.0 | 0.01 | 0.17 | 0.16 | 89 | 1010.3 |
| 20260502211016 | 54 | 338 | 8.0 | 11.0 | 0.01 | 0.17 | 0.16 | 90 | 1010.2 |
| 20260502210016 | 54 | 338 | 6.0 | 10.0 | 0.01 | 0.17 | 0.16 | 91 | 1010.2 |
| 20260502205036 | 54 | 338 | 7.0 | 11.0 | 0.01 | 0.17 | 0.16 | 90 | 1010.1 |
| 20260502204016 | 54 | 338 | 8.0 | 12.0 | 0.01 | 0.16 | 0.15 | 90 | 1010.0 |
| 20260502203016 | 54 | 338 | 5.0 | 10.0 | 0.01 | 0.16 | 0.15 | 91 | 1010.1 |
| 20260502202036 | 53 | 23 | 4.0 | 8.0 | 0.01 | 0.16 | 0.15 | 90 | 1010.1 |
| 20260502201016 | 53 | 23 | 2.0 | 7.0 | 0.01 | 0.16 | 0.15 | 89 | 1010.1 |
| 20260502200016 | 53 | 338 | 6.0 | 9.0 | 0.01 | 0.16 | 0.15 | 89 | 1010.1 |
| 20260502195016 | 53 | 23 | 5.0 | 8.0 | 0.01 | 0.16 | 0.15 | 90 | 1009.8 |
| 20260502194016 | 53 | 23 | 3.0 | 8.0 | 0.00 | 0.15 | 0.14 | 91 | 1010.0 |
| 20260502193016 | 53 | 23 | 3.0 | 8.0 | 0.00 | 0.15 | 0.14 | 92 | 1010.6 |
| 20260502192016 | 53 | 23 | 3.0 | 7.0 | 0.00 | 0.15 | 0.14 | 91 | 1010.6 |
| 20260502191016 | 54 | 23 | 4.0 | 11.0 | 0.00 | 0.15 | 0.14 | 91 | 1010.5 |
| 20260502190016 | 54 | 23 | 5.0 | 8.0 | 0.00 | 0.15 | 0.14 | 91 | 1010.5 |
| 20260502185016 | 54 | 338 | 7.0 | 11.0 | 0.00 | 0.15 | 0.14 | 90 | 1010.8 |